Date,TemperatureHighF,TemperatureAvgF,TemperatureLowF,DewpointHighF,DewpointAvgF,DewpointLowF,HumidityHigh,HumidityAvg,HumidityLow,PressureMaxIn,PressureMinIn,WindSpeedMaxMPH,WindSpeedAvgMPH,GustSpeedMaxMPH,PrecipitationSumIn
2014-1-1,30.8,25.3,21.9,17.0,13.1,10.0,72,60,47,30.36,30.16,12,3,18,0.00
2014-1-2,33.0,29.4,25.4,32.0,26.9,17.0,97,90,67,30.34,29.62,30,15,40,0.00
2014-1-3,27.6,20.8,14.4,27.0,18.1,9.0,96,89,79,30.35,29.45,28,10,35,0.00
2014-1-4,37.0,22.4,6.9,34.0,18.5,4.0,92,85,70,30.51,30.26,20,8,30,0.00
2014-1-5,47.5,37.4,29.4,47.0,34.9,25.0,98,90,82,30.33,29.96,9,3,12,0.14
2014-1-6,52.0,44.0,30.6,52.0,43.7,25.0,100,98,78,29.95,29.35,22,8,25,0.14
2014-1-7,31.3,18.5,10.1,26.0,5.8,-4.0,85,58,42,30.25,29.49,18,7,27,0.00
2014-1-8,23.6,16.8,10.2,15.0,6.1,-3.0,76,63,53,30.45,30.25,13,5,19,0.00
2014-1-9,28.7,20.3,15.2,15.0,11.7,7.0,92,70,55,30.64,30.42,11,2,15,0.00
2014-1-10,39.4,31.9,15.0,39.0,30.0,13.0,98,92,83,30.61,30.27,10,3,15,0.06
2014-1-11,54.2,46.5,40.5,54.0,46.2,40.0,100,99,95,30.27,29.37,24,11,39,0.73
2014-1-12,47.4,42.3,35.3,47.0,36.2,27.0,100,80,59,29.97,29.33,16,5,24,0.10
2014-1-13,45.0,38.5,31.6,43.0,35.3,27.0,94,88,73,30.15,29.96,17,7,20,0.00
2014-1-14,49.6,46.8,43.6,49.0,46.0,43.0,99,97,92,29.95,29.56,17,9,23,0.51
2014-1-15,44.6,39.4,35.6,44.0,38.3,35.0,99,96,84,30.03,29.73,6,2,12,0.01
2014-1-16,43.5,41.7,39.2,43.0,41.3,39.0,99,98,96,29.90,29.80,6,2,8,0.00
2014-1-17,41.1,37.4,31.9,40.0,36.1,31.0,99,95,86,29.98,29.89,11,3,14,0.00
2014-1-18,42.9,39.9,34.5,42.0,38.3,34.0,98,94,88,29.92,29.56,10,3,14,0.23
2014-1-19,36.5,34.8,32.5,34.0,30.6,28.0,98,85,74,29.73,29.58,21,9,36,0.00
2014-1-20,41.8,37.6,33.9,35.0,31.4,25.0,86,78,68,29.82,29.52,13,6,19,0.00
2014-1-21,33.3,24.6,19.4,24.0,18.2,8.0,95,77,57,30.02,29.71,17,7,26,0.00
2014-1-22,27.4,22.3,14.8,24.0,19.0,9.0,94,87,73,29.82,29.44,23,10,32,0.00
2014-1-23,23.5,16.0,11.3,12.0,7.9,2.0,91,72,54,30.14,29.82,10,3,16,0.00
2014-1-24,19.1,13.3,8.1,6.0,2.3,-1.0,74,62,45,30.21,30.09,13,3,16,0.00
2014-1-25,37.7,31.4,12.3,35.0,27.9,5.0,96,86,73,30.08,29.32,29,12,32,0.01
2014-1-26,28.4,23.4,19.4,26.0,13.9,1.0,91,68,44,29.91,29.34,17,6,24,0.00
2014-1-27,41.6,36.0,25.9,40.0,30.6,10.0,95,82,44,29.93,29.56,17,7,24,0.00
2014-1-28,26.5,19.9,15.9,11.0,2.9,-2.0,57,48,39,30.29,29.93,10,2,16,0.00
2014-1-29,25.8,20.7,17.5,20.0,13.6,4.0,92,75,50,30.19,29.96,10,2,13,0.00
2014-1-30,30.2,22.1,12.9,27.0,12.2,2.0,86,66,54,30.42,30.20,11,5,16,0.00
2014-1-31,36.2,33.2,30.4,35.0,29.3,26.0,94,85,72,30.21,30.01,13,5,15,0.00
2014-2-1,39.6,35.8,31.5,35.0,29.8,25.0,92,79,60,30.34,30.05,6,2,7,0.00
2014-2-2,41.8,37.8,35.7,39.0,36.6,35.0,98,95,84,30.04,29.86,13,4,16,0.01
2014-2-3,41.8,35.4,32.5,37.0,33.8,31.0,98,93,82,30.23,30.00,18,5,18,0.43
2014-2-4,36.7,31.0,25.7,31.0,27.6,25.0,96,88,72,30.41,30.22,4,1,10,0.09
2014-2-5,36.1,32.8,27.7,36.0,32.1,27.0,98,97,88,30.31,29.49,26,9,31,0.54
2014-2-6,31.3,27.7,21.8,31.0,24.9,20.0,98,89,82,30.21,29.83,8,2,17,0.00
2014-2-7,31.0,26.8,20.2,24.0,19.2,16.0,90,73,59,30.24,30.14,14,4,19,0.00
2014-2-8,29.0,26.2,21.8,21.0,16.1,9.0,84,67,44,30.27,30.08,11,3,15,0.00
2014-2-9,35.1,29.8,25.3,29.0,24.5,19.0,95,81,59,30.08,29.94,11,2,16,0.00
2014-2-10,30.6,26.7,22.1,28.0,19.8,13.0,95,76,58,30.16,29.86,9,2,18,0.00
2014-2-11,27.2,22.4,17.1,14.0,11.8,10.0,80,65,49,30.34,30.16,7,2,12,0.00
2014-2-12,29.7,23.4,17.2,24.0,16.4,9.0,87,74,65,30.50,30.34,11,3,17,0.00
2014-2-13,45.4,39.5,30.6,45.0,38.3,25.0,99,95,80,30.36,28.91,32,10,32,2.11
2014-2-14,46.6,36.6,32.0,47.0,33.5,28.0,100,89,66,29.72,28.75,22,11,31,0.04
2014-2-15,37.8,32.6,26.9,34.0,30.2,25.0,99,91,75,29.84,29.19,19,6,26,0.25
2014-2-16,32.2,27.8,23.2,32.0,24.2,20.0,99,86,74,29.90,29.22,13,3,15,0.00
2014-2-17,29.1,23.1,17.3,20.0,15.2,12.0,85,72,56,30.32,29.91,18,3,18,0.00
2014-2-18,40.5,29.2,15.9,39.0,26.1,13.0,95,88,73,30.33,29.78,17,5,29,0.15
2014-2-19,43.5,35.0,24.0,43.0,32.3,22.0,99,90,77,30.09,29.62,12,4,23,0.40
2014-2-20,46.1,37.6,33.7,36.0,33.7,28.0,98,86,50,30.21,29.77,12,4,15,0.04
2014-2-21,49.8,41.6,36.4,50.0,40.7,35.0,99,96,88,30.14,29.71,19,8,30,0.40
2014-2-22,43.9,39.0,34.8,44.0,36.7,35.0,100,92,77,29.99,29.83,16,6,23,0.01
2014-2-23,43.5,39.5,36.8,41.0,37.9,36.0,97,94,87,30.01,29.75,13,5,17,0.00
2014-2-24,40.6,35.1,25.7,37.0,23.2,9.0,96,65,43,29.91,29.68,14,4,21,0.06
2014-2-25,30.3,25.5,21.5,16.0,11.9,9.0,68,57,46,29.98,29.84,12,4,26,0.00
2014-2-26,31.8,24.2,17.8,25.0,14.8,5.0,93,68,52,29.92,29.74,13,3,18,0.00
2014-2-27,31.0,23.1,12.9,28.0,14.9,6.0,95,71,54,29.83,29.57,15,4,22,0.00
2014-2-28,23.9,18.4,11.9,12.0,5.1,-2.0,78,57,40,30.42,29.84,13,3,22,0.00
2014-3-1,34.7,27.1,14.1,33.0,22.2,10.0,94,82,68,30.42,30.10,13,6,18,0.00
2014-3-2,38.2,34.5,32.0,33.0,30.0,27.0,94,84,64,30.09,29.92,9,3,13,0.00
2014-3-3,32.2,24.0,17.0,30.0,17.3,9.0,94,76,64,30.23,29.90,8,2,18,0.00
2014-3-4,31.0,24.1,14.0,22.0,16.1,9.0,86,72,55,30.31,30.23,11,3,16,0.03
2014-3-5,34.7,28.5,24.9,28.0,21.4,15.0,93,75,57,30.38,30.18,13,4,20,0.00
2014-3-6,27.7,23.6,17.1,19.0,16.0,13.0,87,73,64,30.55,30.39,17,6,22,0.00
2014-3-7,37.7,31.0,16.6,36.0,27.1,14.0,95,86,75,30.49,29.88,12,4,15,0.00
2014-3-8,49.5,39.8,31.2,39.0,34.1,28.0,96,82,46,29.87,29.66,10,4,13,0.00
2014-3-9,38.7,34.2,27.2,31.0,24.0,17.0,87,68,42,29.91,29.80,9,2,18,0.00
2014-3-10,38.3,33.9,29.1,35.0,29.8,18.0,96,85,57,29.87,29.66,12,4,16,0.01
2014-3-11,53.4,40.4,34.7,41.0,36.7,33.0,96,87,57,29.70,29.51,12,4,19,0.00
2014-3-12,49.1,43.1,34.0,49.0,41.0,33.0,99,92,79,29.70,28.93,21,5,27,0.23
2014-3-13,47.2,26.5,20.3,47.0,22.4,9.0,99,85,62,29.87,28.91,16,5,22,0.07
2014-3-14,37.7,27.1,17.1,35.0,17.8,7.0,89,68,46,30.18,29.87,25,11,31,0.00
2014-3-15,46.0,40.9,36.7,40.0,36.7,32.0,94,85,63,29.96,29.69,19,8,24,0.00
2014-3-16,38.8,33.9,30.8,34.0,18.6,10.0,89,54,40,30.15,29.86,15,4,19,0.00
2014-3-17,30.1,24.6,17.1,19.0,16.0,12.0,86,70,50,30.14,29.99,17,7,22,0.00
2014-3-18,31.9,27.0,16.5,25.0,20.0,13.0,88,75,66,30.32,30.14,16,5,17,0.00
2014-3-19,39.1,36.4,31.9,37.0,29.9,25.0,94,77,69,30.35,29.97,13,7,19,0.00
2014-3-20,44.3,41.2,35.2,44.0,39.5,32.0,98,93,82,29.96,29.59,13,6,21,0.48
2014-3-21,46.3,39.4,33.5,35.0,27.6,24.0,93,64,45,30.01,29.75,11,4,17,0.00
2014-3-22,48.3,37.9,26.0,44.0,32.1,22.0,92,80,64,30.04,29.67,20,5,34,0.00
2014-3-23,44.1,37.2,30.6,33.0,25.6,15.0,85,64,41,29.98,29.85,16,3,19,0.00
2014-3-24,30.7,25.5,21.5,15.0,11.9,8.0,71,57,40,30.11,29.98,16,4,22,0.00
2014-3-25,34.7,28.4,18.6,28.0,15.6,10.0,76,59,43,30.14,29.82,17,5,24,0.01
2014-3-26,34.9,30.7,26.5,30.0,23.3,12.0,97,77,47,29.91,29.32,34,14,45,0.00
2014-3-27,35.9,29.5,22.6,31.0,16.6,7.0,83,60,40,30.31,29.91,21,10,27,0.00
2014-3-28,47.8,41.8,34.2,45.0,39.0,31.0,98,90,83,30.28,30.00,26,12,33,0.02
2014-3-29,49.1,42.3,37.4,48.0,41.4,37.0,99,96,87,30.20,29.93,16,8,19,0.91
2014-3-30,55.4,45.5,38.7,55.0,45.4,39.0,100,99,99,29.92,29.50,18,6,28,0.92
2014-3-31,38.7,36.1,34.7,39.0,35.3,33.0,99,96,88,29.88,29.56,23,14,32,0.25
2014-4-1,42.5,37.3,33.6,34.0,32.0,29.0,96,82,64,30.06,29.88,20,9,31,0.08
2014-4-2,43.6,38.5,30.2,37.0,33.3,28.0,95,82,66,30.12,30.03,10,3,12,0.00
2014-4-3,47.0,40.4,32.1,40.0,34.5,30.0,98,81,54,30.11,30.03,19,5,24,0.00
2014-4-4,42.6,39.4,33.4,39.0,36.2,31.0,95,88,79,30.14,29.84,17,6,18,0.08
2014-4-5,51.2,44.3,39.6,47.0,41.6,28.0,98,90,60,29.91,29.61,12,5,22,0.05
2014-4-6,44.7,40.3,33.8,38.0,32.0,26.0,89,73,51,30.18,29.91,16,6,20,0.00
2014-4-7,48.5,42.9,36.2,44.0,38.9,33.0,96,86,68,30.24,29.93,13,4,16,0.10
2014-4-8,52.2,46.7,43.2,52.0,46.5,43.0,99,99,97,29.92,29.38,19,9,29,0.65
2014-4-9,54.9,46.4,42.0,44.0,37.3,27.0,99,72,52,29.91,29.48,15,4,18,0.00
2014-4-10,46.9,42.6,31.0,43.0,32.9,22.0,86,69,47,30.19,29.92,23,11,26,0.00
2014-4-11,49.3,47.5,45.6,46.0,44.5,42.0,94,89,83,30.07,29.95,21,11,25,0.00
2014-4-12,61.0,50.9,45.5,48.0,43.4,35.0,95,78,38,30.22,29.93,13,5,15,0.00
2014-4-13,53.9,49.7,45.1,51.0,45.3,39.0,96,85,65,30.27,30.07,18,8,25,0.00
2014-4-14,54.9,52.7,50.0,52.0,51.1,49.0,98,94,91,30.07,29.97,22,13,26,0.00
2014-4-15,59.9,56.2,51.7,56.0,53.8,50.0,97,92,85,29.97,29.61,26,15,37,0.12
2014-4-16,57.0,38.8,33.1,56.0,30.9,23.0,97,75,51,30.55,29.62,27,7,32,0.86
2014-4-17,38.6,37.3,34.7,32.0,29.3,24.0,79,73,59,30.73,30.55,22,14,27,0.00
2014-4-18,41.3,40.0,37.9,39.0,35.8,32.0,93,85,76,30.60,30.30,17,11,22,0.00
2014-4-21,51.4,49.5,47.0,47.0,46.1,45.0,94,88,82,30.11,29.86,11,7,15,0.00
2014-4-22,53.5,49.8,44.2,50.0,47.5,43.0,98,92,82,29.86,29.50,15,8,19,0.04
2014-4-23,56.1,48.6,44.8,55.0,46.7,40.0,99,93,76,29.51,29.32,15,6,26,0.63
2014-4-24,54.7,48.0,42.9,40.0,33.9,27.0,76,59,44,29.85,29.51,27,6,30,0.00
2014-4-25,50.7,48.1,44.2,44.0,37.5,33.0,86,68,53,29.97,29.85,17,7,20,0.00
2014-4-26,46.4,43.9,38.5,42.0,39.9,37.0,94,86,76,29.87,29.72,19,7,22,0.10
2014-4-27,47.1,42.1,36.4,43.0,39.8,35.0,97,91,80,29.99,29.82,7,1,12,0.06
2014-4-28,49.7,45.9,43.3,42.0,40.7,39.0,92,82,72,30.16,29.93,22,8,27,0.00
2014-4-29,44.1,42.8,41.7,41.0,39.0,37.0,91,86,81,30.49,30.16,23,14,28,0.00
2014-4-30,44.0,42.7,41.7,43.0,40.0,37.0,97,90,83,30.49,30.18,18,10,23,0.18
2014-5-1,54.3,49.5,44.2,54.0,49.1,43.0,99,98,97,30.16,29.65,17,7,21,0.93
2014-5-2,62.2,52.1,46.8,53.0,47.7,43.0,100,86,49,29.79,29.62,13,5,16,0.09
2014-5-3,58.8,51.0,40.9,51.0,46.1,40.0,97,84,63,29.86,29.73,10,4,17,0.00
2014-5-4,57.8,52.5,48.8,50.0,46.6,40.0,95,81,63,29.74,29.52,19,8,28,0.06
2014-5-5,62.4,54.0,47.8,49.0,45.1,40.0,87,73,52,29.81,29.57,12,3,16,0.00
2014-5-6,60.3,52.3,46.5,48.0,42.4,37.0,87,70,43,29.98,29.80,9,2,16,0.00
2014-5-7,59.2,51.6,43.2,47.0,41.8,38.0,90,70,48,30.19,29.98,14,5,16,0.00
2014-5-8,56.2,52.9,49.9,53.0,49.6,46.0,97,88,81,30.18,30.09,15,7,16,0.00
2014-5-9,54.8,51.3,48.3,51.0,47.4,40.0,98,87,60,30.23,30.10,8,2,13,0.00
2014-5-10,57.2,54.3,52.0,57.0,52.8,49.0,98,94,89,30.10,29.80,17,9,20,0.00
2014-5-11,67.6,58.3,53.7,59.0,53.5,48.0,98,85,50,29.99,29.78,13,7,20,0.18
2014-5-12,69.0,58.6,50.3,55.0,51.9,46.0,95,79,45,30.09,29.99,17,6,21,0.00
2014-5-13,58.6,48.8,45.4,55.0,45.4,43.0,91,88,83,30.30,30.00,23,12,29,0.00
2014-5-14,54.6,50.2,45.1,51.0,47.4,43.0,94,90,83,30.34,30.27,10,4,15,0.00
2014-5-15,61.6,56.8,53.4,57.0,53.9,52.0,96,90,83,30.30,30.23,10,3,16,0.00
2014-5-16,63.1,56.9,52.2,57.0,54.5,51.0,97,92,81,30.23,30.02,12,4,18,0.00
2014-5-17,61.6,57.0,54.3,59.0,55.4,51.0,99,94,76,30.02,29.89,19,6,22,0.36
2014-5-18,61.7,55.7,48.5,53.0,49.7,46.0,95,81,66,30.04,29.98,15,3,19,0.00
2014-5-19,64.6,55.9,48.3,49.0,45.3,40.0,94,70,41,30.03,29.95,10,3,15,0.02
2014-5-20,61.0,55.3,50.6,53.0,50.5,49.0,96,84,67,29.95,29.92,15,5,24,0.25
2014-5-21,59.4,53.9,47.5,55.0,51.5,47.0,98,91,83,29.97,29.92,11,4,14,0.00
2014-5-22,53.4,50.1,47.4,51.0,49.0,47.0,99,95,87,29.95,29.85,7,3,12,0.07
2014-5-23,57.8,53.6,50.4,53.0,51.1,49.0,97,91,82,29.93,29.86,14,6,15,0.00
2014-5-24,55.4,52.7,50.0,51.0,49.4,48.0,97,88,81,30.03,29.88,21,9,26,0.00
2014-5-25,57.6,54.3,51.0,53.0,49.5,47.0,92,84,76,30.08,30.01,11,4,14,0.00
2014-5-26,66.3,60.6,54.4,60.0,57.8,53.0,99,90,76,30.03,29.80,15,9,20,0.00
2014-5-27,68.9,56.2,51.1,62.0,54.8,50.0,98,95,74,29.89,29.78,17,8,20,0.02
2014-5-28,52.0,49.8,47.6,52.0,48.9,45.0,99,96,90,30.14,29.83,25,13,30,0.08
2014-5-29,54.3,49.9,44.9,49.0,46.4,44.0,95,88,78,30.21,30.14,14,5,18,0.00
2014-5-30,55.1,49.9,41.9,50.0,46.1,41.0,98,87,64,30.15,30.00,9,2,13,0.00
2014-5-31,57.2,53.5,50.5,52.0,50.1,48.0,97,89,77,30.21,30.01,22,8,30,0.00
2014-6-1,65.5,56.8,50.3,50.0,46.6,38.0,94,71,44,30.29,30.20,17,6,18,0.00
2014-6-2,63.7,58.9,51.9,58.0,54.4,49.0,92,85,76,30.23,30.03,14,7,15,0.00
2014-6-3,62.8,58.6,53.6,56.0,52.3,45.0,96,80,53,30.03,29.89,10,4,15,0.00
2014-6-4,59.5,54.4,49.8,58.0,53.5,49.0,99,97,90,29.90,29.76,8,2,11,0.00
2014-6-5,59.8,57.5,54.9,60.0,57.2,54.0,99,98,96,29.77,29.50,12,3,24,1.20
2014-6-6,72.4,62.2,54.3,61.0,58.5,54.0,100,88,60,29.82,29.66,11,3,14,0.00
2014-6-7,73.7,65.2,59.4,62.0,59.3,56.0,94,81,63,29.90,29.82,12,4,15,0.00
2014-6-8,75.8,67.6,60.4,64.0,60.9,59.0,97,80,58,29.90,29.85,8,3,9,0.00
2014-6-9,66.4,64.5,61.2,64.0,62.1,60.0,95,92,86,29.98,29.89,12,6,14,0.00
2014-6-10,67.3,63.7,58.7,66.0,62.6,57.0,99,96,92,30.03,29.93,16,6,21,0.75
2014-6-11,60.1,58.6,57.4,57.0,55.8,54.0,94,90,85,30.14,30.03,18,11,21,0.00
2014-6-12,63.4,60.4,57.3,58.0,56.4,53.0,93,87,81,30.14,30.04,16,6,20,0.00
2014-6-13,63.6,59.2,57.0,63.6,58.5,55.9,100,98,90,30.04,29.77,20,6,22,0.73
2014-6-14,68.5,63.2,59.9,68.2,62.5,59.3,100,98,89,29.85,29.77,15,3,15,0.02
2014-6-15,76.6,66.3,58.4,62.3,58.0,55.4,99,76,53,29.99,29.83,17,2,19,0.00
2014-6-16,68.0,63.7,58.3,58.8,52.6,42.5,92,69,40,30.11,29.98,16,6,21,0.00
2014-6-17,66.5,63.8,61.0,64.5,60.6,53.3,99,90,74,30.09,29.89,20,9,21,0.02
2014-6-18,83.9,71.4,63.8,70.3,65.3,63.0,100,83,56,29.90,29.71,15,6,18,0.00
2014-6-19,71.4,68.2,63.4,66.4,64.4,55.7,96,88,74,29.93,29.86,14,5,15,0.02
2014-6-20,70.8,62.8,52.8,58.1,52.4,46.4,93,70,45,29.92,29.85,17,3,19,0.00
2014-6-21,65.8,60.7,51.1,56.6,52.6,47.4,91,75,58,29.93,29.87,15,5,15,0.00
2014-6-22,67.8,62.7,54.6,58.3,53.7,49.7,93,73,55,30.00,29.88,15,4,15,0.00
2014-6-23,69.3,61.7,51.8,59.7,55.3,50.1,96,80,60,30.16,30.00,11,2,11,0.00
2014-6-24,68.6,63.9,55.4,61.5,57.8,53.9,97,81,65,30.18,30.03,16,5,18,0.00
2014-6-25,67.2,65.5,63.8,65.7,63.3,60.3,95,93,88,30.03,29.98,14,7,15,0.00
2014-7-1,72.9,71.7,70.5,70.9,70.3,69.6,98,95,91,29.88,29.84,22,13,22,0.00
2014-7-2,74.9,72.1,66.5,73.1,71.1,66.0,100,97,93,29.96,29.84,20,11,22,0.00
2014-7-3,74.8,71.7,66.5,74.0,71.2,66.0,100,98,93,29.98,29.91,20,8,20,0.00
2014-7-4,74.8,69.6,62.5,73.1,68.9,62.5,100,98,90,29.98,29.55,35,8,35,2.25
2014-7-5,77.7,66.7,57.2,63.8,57.7,48.0,100,77,40,29.97,29.55,25,6,25,0.43
2014-7-6,75.4,71.1,66.5,66.8,61.8,55.0,85,73,57,29.98,29.88,23,10,28,0.00
2014-7-7,73.1,70.5,68.2,69.9,67.0,62.8,96,89,81,29.91,29.75,32,15,34,0.00
2014-7-8,72.7,71.3,69.3,72.0,69.6,67.6,98,94,92,29.83,29.74,24,13,29,0.00
2014-7-9,72.9,71.7,70.2,71.4,69.9,68.0,100,94,92,29.93,29.73,26,12,33,0.00
2014-7-10,78.2,71.0,64.0,71.1,65.4,56.9,100,84,51,30.12,29.92,26,4,26,0.16
2014-7-11,72.0,67.3,60.9,66.4,63.4,60.0,99,88,71,30.19,30.10,12,4,12,0.01
2014-7-12,72.9,67.7,60.0,67.0,62.9,59.4,99,85,70,30.21,30.12,15,5,17,0.01
2014-7-13,73.3,71.2,68.8,70.4,68.5,64.6,96,91,83,30.13,29.95,23,13,24,0.00
2014-7-14,73.3,72.0,70.6,72.2,71.1,69.6,99,97,94,29.95,29.87,25,13,26,0.00
2014-7-15,74.9,71.4,64.7,73.6,70.9,64.0,100,98,94,29.89,29.80,24,10,24,0.00
2014-7-16,73.8,69.0,63.9,73.1,68.5,63.3,100,98,95,29.83,29.77,23,8,24,0.62
2014-7-17,75.9,70.4,66.7,70.3,66.3,61.8,100,87,66,30.02,29.82,17,2,17,0.01
2014-7-19,72.0,68.5,64.6,63.0,58.0,52.0,93,70,50,30.25,30.17,10,3,10,0.00
2014-7-20,69.2,66.2,63.5,65.6,63.2,59.8,97,90,83,30.18,30.08,16,7,16,0.20
2014-7-21,71.1,66.3,62.8,66.0,64.0,61.3,99,93,72,30.14,30.06,17,7,17,0.00
2014-7-22,72.5,67.5,60.6,69.4,65.8,60.2,100,95,86,30.13,30.00,17,6,17,0.00
2014-7-23,73.5,71.6,70.1,71.3,69.4,66.8,98,93,86,30.01,29.77,22,12,23,0.00
2014-7-24,75.7,69.6,61.9,72.1,68.1,61.3,99,95,86,29.85,29.70,17,5,19,0.02
2014-7-25,73.9,68.1,62.1,65.6,62.6,58.3,99,83,62,29.97,29.83,14,4,14,0.01
2014-7-26,72.2,70.5,67.1,69.4,67.5,62.8,95,90,78,29.98,29.90,17,9,20,0.00
2014-7-27,73.8,69.5,64.8,70.9,67.5,63.3,99,93,87,29.90,29.69,17,6,18,0.01
2014-7-28,74.0,69.8,63.0,72.1,68.4,62.7,100,95,86,29.70,29.49,27,9,28,0.01
2014-7-29,73.8,70.2,66.8,69.1,64.7,60.3,92,83,63,29.92,29.55,23,8,24,0.00
2014-7-30,73.3,71.1,64.3,66.3,63.4,60.0,92,77,68,30.02,29.91,17,7,17,0.00
2014-7-31,73.6,70.2,61.7,67.8,64.8,59.0,95,83,71,30.15,30.02,17,6,17,0.00
2014-8-1,74.2,69.9,64.7,68.2,65.6,61.4,92,86,79,30.22,30.14,16,4,16,0.00
2014-8-2,67.9,64.2,61.3,64.0,61.5,58.6,99,91,79,30.21,30.05,18,4,18,0.74
2014-8-3,66.9,65.2,64.3,65.3,64.6,64.0,99,98,93,30.11,30.00,10,4,10,0.03
2014-8-4,73.1,69.0,64.9,69.9,67.6,64.9,100,95,87,30.03,29.98,19,6,20,0.02
2014-8-5,71.0,70.9,70.7,70.1,69.8,69.5,97,97,96,30.00,29.98,11,5,11,0.00
2014-8-6,76.3,70.3,65.7,70.0,67.2,64.6,97,90,73,29.98,29.75,9,3,10,0.22
2014-8-7,75.7,66.3,58.9,68.8,61.5,56.8,98,86,52,29.89,29.78,15,1,15,0.98
2014-8-8,77.4,67.2,58.5,67.6,61.7,57.1,98,84,53,29.97,29.88,15,2,15,0.01
2014-8-9,74.8,69.6,64.1,67.0,64.2,61.0,97,83,68,30.06,29.95,11,3,13,0.00
2014-8-10,77.9,71.2,63.3,69.0,64.2,57.2,97,80,51,30.11,30.03,13,4,13,0.00
2014-8-11,73.8,68.5,61.5,67.6,62.7,57.8,99,83,59,30.14,30.10,12,4,12,0.01
2014-8-12,72.5,67.6,62.9,66.8,64.2,60.4,98,89,79,30.12,30.03,13,3,15,0.00
2014-8-13,68.6,64.1,61.4,68.6,62.1,59.8,100,93,86,30.03,29.60,21,5,21,0.74
2014-8-14,71.6,66.2,58.3,68.8,61.6,56.0,100,86,71,29.85,29.61,19,4,19,0.01
2014-8-15,72.0,66.1,58.4,65.9,59.4,53.2,98,80,54,29.92,29.82,21,5,21,0.02
2014-8-16,72.8,68.1,60.8,65.9,61.4,55.3,94,80,64,29.98,29.90,21,8,21,0.00
2014-8-17,72.3,67.4,62.5,68.8,65.2,60.5,98,93,86,29.91,29.72,21,4,21,0.12
2014-8-18,73.0,64.7,58.6,60.7,58.3,55.7,95,81,57,29.84,29.74,15,2,15,0.01
2014-8-19,71.3,63.6,55.6,61.5,59.1,54.8,98,86,57,29.93,29.82,13,2,13,0.00
2014-8-20,68.7,64.3,56.9,64.4,60.5,56.0,98,88,73,30.01,29.92,14,3,14,0.01
2014-8-21,70.5,67.5,62.9,66.3,64.1,61.0,97,89,77,30.05,29.99,16,4,16,0.00
2014-8-22,68.5,66.2,62.9,65.5,63.5,62.0,98,91,83,30.05,30.00,15,5,15,0.03
2014-8-23,68.8,65.5,60.1,63.9,61.5,57.1,95,87,81,30.06,30.01,25,7,25,0.02
2014-8-24,69.2,63.9,57.7,62.1,59.7,56.0,97,87,71,30.10,30.05,20,4,20,0.00
2014-8-25,70.9,65.4,58.9,65.1,60.8,56.5,99,85,70,30.13,30.08,9,3,11,0.00
2014-8-26,71.4,65.5,57.2,64.5,60.1,55.8,97,83,65,30.16,30.05,15,3,15,0.00
2014-8-27,73.7,70.7,67.1,69.2,66.7,63.8,94,87,74,30.05,29.82,21,9,22,0.00
2014-8-28,76.4,71.9,66.4,69.0,63.0,56.0,93,74,56,29.92,29.72,22,5,22,0.00
2014-8-29,67.7,63.9,56.1,59.2,56.9,52.8,90,78,70,30.24,29.92,20,5,23,0.00
2014-8-30,68.3,61.2,51.5,64.8,56.7,50.0,97,86,72,30.30,30.14,16,4,16,0.00
2014-8-31,73.4,71.0,65.9,71.5,69.0,64.3,99,94,87,30.15,29.96,21,10,21,0.45
2014-9-1,74.5,71.8,70.6,73.1,71.2,70.0,99,98,94,29.98,29.90,19,8,21,0.07
2014-9-2,73.9,71.8,69.6,73.6,71.6,69.6,100,100,97,29.92,29.76,15,8,16,0.00
2014-9-3,80.0,73.9,66.5,72.4,67.6,60.2,100,82,53,30.04,29.70,17,4,17,0.00
2014-9-4,75.4,70.8,63.2,70.2,65.1,61.0,95,83,66,30.16,30.04,14,4,14,0.00
2014-9-5,75.4,72.7,68.5,72.9,71.2,66.3,98,95,92,30.15,29.99,21,10,22,0.00
2014-9-6,74.8,73.7,72.4,74.4,73.3,71.6,100,98,97,29.99,29.78,23,12,24,0.00
2014-9-7,73.9,67.0,57.8,73.2,62.9,57.0,98,87,71,30.17,29.84,17,4,18,0.02
2014-9-8,69.0,64.2,56.8,64.1,58.2,54.9,99,82,68,30.34,30.16,22,6,22,0.01
2014-9-9,66.9,65.9,64.6,64.3,60.5,56.2,93,83,74,30.31,30.12,18,10,19,0.00
2014-9-10,69.0,66.7,63.3,65.8,64.2,61.2,95,92,87,30.12,30.00,20,7,20,0.00
2014-9-11,71.8,66.1,57.8,70.8,64.2,57.0,98,93,87,30.01,29.79,19,6,19,0.00
2014-9-12,71.4,63.6,57.6,70.8,58.8,54.0,98,84,74,30.17,29.83,14,4,19,0.00
2014-9-13,65.1,63.5,59.1,63.3,57.9,54.0,97,83,71,30.21,30.02,19,6,19,0.03
2014-9-14,64.0,58.5,50.1,63.1,54.3,47.9,98,86,70,30.18,30.03,16,2,16,0.00
2014-9-15,64.3,56.5,48.8,55.6,50.6,46.9,96,82,57,30.18,30.07,12,2,12,0.00
2014-9-16,64.8,61.6,54.6,56.8,54.7,52.5,93,78,68,30.08,29.92,11,2,12,0.00
2014-9-17,67.3,65.0,59.0,60.3,56.9,51.1,87,75,68,29.97,29.92,14,4,14,0.00
2014-9-18,69.8,60.9,50.9,56.9,52.3,47.8,93,75,50,30.05,29.89,13,2,13,0.00
2014-9-19,62.6,54.7,46.4,57.0,44.5,39.7,82,69,58,30.40,30.05,22,8,22,0.00
2014-9-20,64.9,58.9,50.8,59.8,53.1,42.6,92,81,71,30.39,30.10,13,3,13,0.00
2014-9-21,70.5,65.6,61.4,68.3,64.3,59.7,99,96,89,30.10,29.50,11,2,13,0.02
2014-9-22,73.8,67.3,56.4,68.0,59.2,46.0,99,77,43,30.03,29.50,20,6,21,0.00
2014-9-23,63.3,57.5,53.0,52.5,46.9,42.0,89,68,57,30.39,30.03,16,3,16,0.00
2014-9-24,64.3,59.6,52.6,60.0,55.3,49.5,96,86,77,30.58,30.39,18,5,18,0.00
2014-9-25,62.7,61.1,57.9,61.0,58.4,52.5,99,91,82,30.51,30.15,17,6,17,0.83
2014-9-26,64.8,60.8,53.0,61.7,58.6,52.0,99,93,78,30.16,30.09,22,7,22,0.22
2014-9-27,74.8,63.2,53.2,64.5,58.7,52.8,100,87,63,30.14,30.09,11,1,12,0.01
2014-9-28,69.4,64.1,55.9,65.7,61.9,55.3,99,93,82,30.14,29.97,15,5,16,0.01
2014-9-29,69.7,67.0,64.1,68.0,65.6,63.2,98,95,93,29.97,29.90,14,5,14,0.00
2014-9-30,64.2,62.2,61.4,63.6,61.7,60.5,100,98,95,29.97,29.90,13,4,16,0.04
2014-10-1,62.8,61.6,60.5,62.8,61.4,60.0,100,99,98,30.01,29.91,30,11,31,2.08
2014-10-2,61.5,59.3,57.3,60.9,57.0,53.3,98,92,85,30.08,29.97,28,11,28,0.06
2014-10-3,58.9,58.1,55.8,58.1,56.4,54.1,99,94,88,30.05,29.85,19,6,21,0.01
2014-10-4,63.6,60.2,58.3,63.3,59.9,58.0,100,99,98,29.84,29.52,12,2,14,0.10
2014-10-5,64.4,57.9,50.1,64.1,52.2,45.2,99,82,59,29.93,29.52,21,4,21,0.03
2014-10-6,62.4,55.0,44.2,56.5,47.4,41.0,92,76,56,30.16,29.93,12,3,13,0.00
2014-10-7,65.4,62.3,59.4,62.1,59.7,56.5,97,91,84,30.16,30.01,13,4,19,0.00
2014-10-8,67.1,64.3,61.5,64.2,61.7,59.5,98,91,84,30.01,29.72,24,8,25,0.25
2014-10-9,64.1,59.8,50.4,61.3,49.0,41.0,91,68,44,29.96,29.82,24,7,24,0.00
2014-10-10,60.5,56.1,47.1,50.7,47.3,42.0,89,73,53,30.10,29.96,17,4,18,0.00
2014-10-11,55.2,52.0,46.4,52.6,49.8,45.9,99,92,78,30.10,29.99,14,2,14,0.71
2014-10-12,56.4,49.3,42.6,52.7,45.2,42.1,99,87,64,30.29,30.08,20,3,20,0.01
2014-10-13,59.8,53.6,44.1,56.3,49.6,43.0,98,87,64,30.36,30.25,11,4,14,0.01
2014-10-14,67.2,63.1,58.8,63.8,60.9,56.1,96,92,87,30.27,30.16,15,6,16,0.00
2014-10-15,70.2,65.1,61.6,67.4,63.4,60.6,98,95,89,30.16,29.98,15,5,15,0.00
2014-10-16,67.5,64.4,62.1,66.1,63.7,61.5,99,97,94,29.98,29.66,19,3,19,0.95
2014-10-17,65.8,63.6,60.8,63.0,61.6,60.0,99,93,87,29.70,29.56,25,9,25,0.07
2014-10-18,66.4,63.5,57.3,63.5,60.9,53.0,97,91,83,29.68,29.48,16,6,18,0.00
2014-10-19,59.0,53.2,47.3,53.6,44.5,31.8,90,73,53,29.89,29.57,16,3,18,0.00
2014-10-20,57.1,48.7,39.3,49.8,39.2,31.0,80,70,56,30.06,29.89,21,5,24,0.00
2014-10-21,60.1,58.1,56.5,57.5,55.2,49.5,97,90,76,30.01,29.87,16,3,16,0.04
2014-10-22,59.6,57.9,54.8,59.0,57.0,53.7,98,97,94,29.92,29.63,33,11,33,0.12
2014-10-23,62.9,59.1,56.6,60.2,57.6,54.0,98,95,89,29.64,29.43,26,9,27,0.42
2014-10-24,56.6,52.7,51.3,53.9,47.5,45.0,91,82,79,29.69,29.49,25,4,25,0.09
2014-10-25,60.5,55.1,46.7,53.1,48.0,40.5,79,77,68,29.74,29.51,18,5,18,0.00
2014-10-26,60.5,55.8,48.6,54.0,46.6,41.0,81,72,59,29.68,29.41,24,4,24,0.00
2014-10-27,60.3,52.0,47.8,47.9,44.3,41.0,91,76,60,30.00,29.68,20,3,20,0.00
2014-10-28,62.0,54.2,42.3,56.7,50.2,39.9,93,86,79,30.08,29.92,13,3,14,0.00
2014-10-29,63.6,60.8,55.9,54.2,51.9,48.0,79,73,68,29.92,29.77,16,6,16,0.00
2014-10-30,58.6,53.2,49.2,47.9,45.0,42.0,80,74,60,29.95,29.83,13,1,13,0.00
2014-10-31,53.9,51.8,46.8,47.5,44.9,39.7,81,77,72,30.00,29.87,22,10,26,0.00
2014-11-1,54.0,51.4,46.5,48.9,43.9,38.7,83,75,69,29.87,29.62,39,15,39,0.33
2014-11-2,46.7,41.3,37.2,39.5,32.3,25.8,76,70,53,29.77,29.41,37,12,37,2.16
2014-11-3,51.6,44.3,37.2,35.0,26.4,20.8,61,50,30,30.03,29.76,21,5,22,0.00
2014-11-4,55.1,52.2,38.9,46.7,42.4,31.8,78,70,51,30.13,30.03,14,4,14,0.00
2014-11-5,57.8,54.7,47.5,49.2,45.0,37.2,74,70,66,30.10,29.97,20,7,21,0.00
2014-11-6,56.9,52.2,46.9,45.1,41.7,36.9,73,67,63,30.09,29.44,15,3,18,0.73
2014-11-7,54.6,47.5,40.9,42.2,36.1,30.4,72,65,57,29.75,29.40,16,4,24,0.05
2014-11-8,50.0,43.1,35.8,41.7,33.6,27.7,73,69,57,29.96,29.75,18,7,20,0.00
2014-11-9,53.7,48.6,40.2,45.3,38.3,27.0,75,68,58,29.97,29.88,15,3,17,0.00
2014-11-10,54.7,46.9,38.2,46.0,34.9,25.0,74,63,56,30.21,29.97,9,1,10,0.00
2014-11-11,57.4,51.7,42.1,44.5,37.0,28.0,67,57,52,30.20,29.94,11,1,13,0.01
2014-11-12,62.4,54.6,49.9,49.7,36.4,29.6,74,51,40,29.94,29.81,12,2,13,0.01
2014-11-13,51.4,46.7,42.7,43.0,37.6,30.0,75,71,59,30.02,29.86,11,2,15,0.00
2014-11-14,45.3,39.8,34.7,36.0,28.1,21.0,79,64,50,30.05,29.81,11,2,14,0.43
2014-11-15,38.3,34.6,30.2,29.0,24.6,21.0,79,67,53,30.33,30.05,11,2,15,0.00
2014-11-16,47.5,38.8,28.1,41.3,31.1,22.0,80,74,56,30.40,30.11,15,2,18,0.00
2014-11-17,59.3,50.9,42.8,40.0,33.0,25.6,74,51,45,30.12,29.39,31,8,31,2.34
2014-11-18,53.0,40.1,28.2,39.6,27.3,12.8,86,60,49,29.93,29.40,25,6,31,0.01
2014-11-19,42.3,34.4,25.3,34.9,21.0,12.9,78,58,39,30.14,29.93,23,8,26,0.00
2014-11-20,47.6,42.4,33.9,40.5,34.7,25.0,86,74,57,30.06,29.76,23,6,23,0.00
2014-11-21,37.5,33.0,28.3,27.0,16.1,12.0,70,50,44,30.38,29.86,18,4,23,0.00
2014-11-22,47.3,37.4,25.3,42.1,28.1,14.0,83,69,50,30.42,30.07,28,10,29,0.00
2014-11-23,51.0,47.7,43.8,46.4,42.9,40.0,92,83,73,30.15,30.07,17,7,21,0.00
2014-11-24,59.6,55.2,49.3,49.6,40.6,35.0,82,59,48,30.10,29.67,28,11,31,0.36
2014-11-25,55.0,51.5,47.4,47.1,38.7,35.0,88,63,49,30.10,29.74,16,5,16,0.00
2014-11-26,48.0,45.8,44.6,42.0,37.8,31.0,87,74,58,30.16,29.43,40,11,45,1.63
2014-11-27,44.5,38.7,36.5,36.5,29.9,25.0,88,71,59,29.95,29.47,18,2,25,0.19
2014-11-28,37.7,34.8,30.8,30.3,25.7,22.0,88,69,63,30.17,29.89,22,2,25,0.25
2014-11-29,38.8,31.9,24.0,33.2,24.1,20.0,86,73,60,30.34,30.17,10,2,12,0.00
2014-11-30,53.2,47.9,38.8,49.0,43.0,33.0,86,83,73,30.29,30.06,13,7,16,0.00
2014-12-1,53.8,49.9,42.1,49.3,42.7,36.0,86,77,61,30.37,30.02,16,6,19,0.07
2014-12-2,47.5,40.5,38.2,42.0,34.0,30.0,86,78,70,30.65,30.33,25,13,28,0.03
2014-12-3,53.6,50.7,43.3,44.0,37.5,34.8,86,61,52,30.34,29.89,21,9,23,0.00
2014-12-4,44.6,38.8,32.0,38.0,28.1,25.0,82,66,49,30.50,30.05,16,2,18,0.00
2014-12-5,43.9,38.6,30.0,40.0,31.9,25.5,86,77,66,30.63,30.42,23,5,23,0.01
2014-12-6,51.0,47.6,43.9,44.6,36.0,31.0,86,65,55,30.42,30.09,19,5,19,0.00
2014-12-7,44.9,37.6,30.8,38.0,29.2,23.3,87,72,60,30.57,30.10,37,16,37,0.00
2014-12-8,42.9,35.7,30.0,39.2,30.5,23.9,87,81,76,30.67,30.42,32,17,32,0.00
2014-12-9,56.2,49.1,42.7,44.0,37.3,33.0,87,65,51,30.42,29.49,39,17,43,0.00
2014-12-10,48.3,45.5,41.8,41.3,33.9,30.0,89,65,57,29.53,29.40,23,6,24,0.06
2014-12-11,42.1,39.1,34.7,39.0,33.8,28.0,88,81,72,29.80,29.45,32,10,33,0.00
2014-12-12,38.7,35.2,29.4,32.5,30.1,26.0,88,81,74,29.85,29.79,8,2,12,0.00
2014-12-13,38.6,36.3,33.0,35.0,32.6,29.6,88,86,83,29.82,29.73,11,2,12,0.05
2014-12-14,42.4,37.8,32.1,37.5,33.7,27.9,88,85,78,29.86,29.72,10,1,10,0.00
2014-12-15,41.6,37.7,31.3,37.4,32.7,23.0,88,82,66,30.11,29.85,13,1,13,0.01
2014-12-16,49.1,43.8,40.0,42.5,39.2,36.5,87,84,70,30.13,29.88,7,2,10,0.00
2014-12-17,52.4,46.6,43.5,42.5,39.4,33.5,87,77,60,29.86,29.62,13,3,15,0.26
2014-12-18,43.9,40.0,34.3,39.2,34.1,30.3,87,79,69,29.83,29.68,12,4,20,0.02
2014-12-19,38.4,35.7,33.7,31.4,29.8,28.0,86,79,71,30.09,29.82,13,2,13,0.00
2014-12-20,41.4,38.3,35.2,37.2,34.6,29.9,88,86,81,30.24,30.09,18,3,18,0.09
2014-12-21,42.4,41.1,38.4,39.0,36.6,33.5,88,84,74,30.30,30.21,17,6,17,0.00
2014-12-22,46.4,43.4,37.1,41.5,39.2,33.0,89,85,77,30.34,30.25,20,6,20,0.06
2014-12-23,49.1,47.1,44.1,41.8,40.1,38.0,87,77,68,30.25,30.08,27,10,27,0.35
2014-12-24,59.6,51.2,48.0,45.7,39.7,37.2,68,65,60,30.08,29.59,28,7,28,0.59
2014-12-25,59.2,49.7,42.1,46.6,38.9,34.7,84,67,59,29.95,29.53,28,8,28,0.51
2014-12-26,48.6,42.7,37.6,40.5,36.1,33.0,85,78,62,30.15,29.96,11,3,16,0.00
2014-12-27,47.7,41.0,32.5,41.8,35.5,25.8,85,81,71,30.21,30.05,12,3,12,0.00
2014-12-28,48.7,46.3,42.0,42.7,39.3,33.5,87,76,70,30.05,29.75,21,6,21,0.01
2014-12-29,42.1,38.1,33.1,36.0,29.8,23.4,85,72,51,30.17,29.94,10,1,12,0.00
2014-12-30,34.7,27.2,21.5,24.2,16.7,9.8,74,64,54,30.31,30.17,9,2,17,0.00
2014-12-31,31.2,24.5,19.6,17.1,13.0,8.4,80,62,47,30.31,30.13,13,2,14,0.00
2015-1-1,39.4,31.5,25.0,30.5,18.6,8.3,73,59,39,30.13,29.92,25,7,30,0.00
2015-1-2,42.3,37.2,32.2,27.7,22.3,19.0,65,55,43,30.41,29.93,22,4,22,0.00